TNZ93 YMML-YMLT

Flight info

Callsign TNZ93
Flight time 0h 50m
Altitude 31000
Route SUNTI4/27 SUNTI H169 IRSOM W105 LT DCT
Aircraft B738/M-V/N

Departure

Time 2026-04-16 09:33
Airport Melbourne Airport (YMML)

Arrival

Time 2026-04-16 10:23
Airport Launceston Airport (YMLT)
Time Latitude Longitude Altitude Speed Heading
2026-04-16 09:16 -37.67815 144.84788 365 ft 0 kts 171°
2026-04-16 09:24 -37.67811 144.84787 372 ft 2 kts 171°
2026-04-16 09:24 -37.67792 144.84783 368 ft 3 kts 171°
2026-04-16 09:24 -37.67772 144.84779 369 ft 3 kts 171°
2026-04-16 09:24 -37.67756 144.84776 370 ft 3 kts 174°
2026-04-16 09:25 -37.67738 144.84777 371 ft 3 kts 214°
2026-04-16 09:25 -37.67727 144.84793 371 ft 4 kts 256°
2026-04-16 09:25 -37.67724 144.84811 372 ft 2 kts 261°
2026-04-16 09:25 -37.67724 144.84816 372 ft 3 kts 261°
2026-04-16 09:29 -37.67724 144.84813 372 ft 1 kts 262°
2026-04-16 09:29 -37.67727 144.84790 372 ft 4 kts 261°
2026-04-16 09:29 -37.67732 144.84745 371 ft 6 kts 262°
2026-04-16 09:30 -37.67740 144.84676 370 ft 10 kts 262°
2026-04-16 09:30 -37.67788 144.84613 369 ft 11 kts 215°
2026-04-16 09:30 -37.67826 144.84527 364 ft 12 kts 261°
2026-04-16 09:30 -37.67839 144.84423 366 ft 12 kts 262°
2026-04-16 09:31 -37.67851 144.84319 362 ft 12 kts 262°
2026-04-16 09:31 -37.67863 144.84212 359 ft 12 kts 262°
2026-04-16 09:31 -37.67870 144.84142 361 ft 12 kts 263°
2026-04-16 09:31 -37.67887 144.84033 359 ft 13 kts 265°
2026-04-16 09:32 -37.67883 144.83978 361 ft 0 kts 311°
2026-04-16 09:32 -37.67866 144.83969 356 ft 8 kts 342°
2026-04-16 09:32 -37.67574 144.83905 367 ft 79 kts 351°
2026-04-16 09:32 -37.66808 144.83762 394 ft 141 kts 350°
2026-04-16 09:33 -37.65729 144.83522 751 ft 165 kts 351°
2026-04-16 09:33 -37.64650 144.83348 1727 ft 152 kts 348°
2026-04-16 09:33 -37.63582 144.83148 2424 ft 158 kts 346°
2026-04-16 09:33 -37.62453 144.82929 2935 ft 176 kts 345°
2026-04-16 09:34 -37.61138 144.82662 3207 ft 204 kts 345°
2026-04-16 09:34 -37.59631 144.82628 3421 ft 234 kts
2026-04-16 09:34 -37.58158 144.83675 3893 ft 259 kts 39°
2026-04-16 09:34 -37.57133 144.85703 4251 ft 290 kts 71°
2026-04-16 09:35 -37.56827 144.88248 5041 ft 298 kts 85°
2026-04-16 09:35 -37.56716 144.90874 5794 ft 303 kts 87°
2026-04-16 09:35 -37.56986 144.93527 6470 ft 309 kts 112°
2026-04-16 09:35 -37.58033 144.95833 7236 ft 306 kts 136°
2026-04-16 09:36 -37.59716 144.97373 7916 ft 298 kts 166°
2026-04-16 09:36 -37.61682 144.98089 8692 ft 294 kts 175°
2026-04-16 09:36 -37.63692 144.98620 9474 ft 296 kts 177°
2026-04-16 09:36 -37.65727 144.99114 10202 ft 300 kts 178°
2026-04-16 09:37 -37.67839 144.99617 10485 ft 320 kts 178°
2026-04-16 09:37 -37.70102 145.00157 10666 ft 342 kts 176°
2026-04-16 09:37 -37.72476 145.00746 11160 ft 352 kts 176°
2026-04-16 09:37 -37.74897 145.01358 11805 ft 358 kts 176°
2026-04-16 09:38 -37.77341 145.01996 12622 ft 359 kts 176°
2026-04-16 09:38 -37.79799 145.02635 13402 ft 362 kts 176°
2026-04-16 09:38 -37.82279 145.03284 14170 ft 364 kts 176°
2026-04-16 09:38 -37.84744 145.03940 15120 ft 360 kts 176°
2026-04-16 09:39 -37.87207 145.04586 15870 ft 363 kts 177°
2026-04-16 09:39 -37.89696 145.05229 16555 ft 368 kts 177°
2026-04-16 09:39 -37.92222 145.05889 17268 ft 372 kts 177°
2026-04-16 09:39 -37.94743 145.06544 17983 ft 376 kts 177°
2026-04-16 09:40 -37.97327 145.07218 18631 ft 380 kts 177°
2026-04-16 09:40 -37.99925 145.07905 19241 ft 384 kts 177°
2026-04-16 09:40 -38.02555 145.08596 19841 ft 388 kts 178°
2026-04-16 09:40 -38.05230 145.09299 20348 ft 395 kts 178°
2026-04-16 09:41 -38.07937 145.10007 20925 ft 399 kts 178°
2026-04-16 09:41 -38.10673 145.10721 21525 ft 402 kts 178°
2026-04-16 09:41 -38.13426 145.11441 22097 ft 406 kts 178°
2026-04-16 09:41 -38.16222 145.12175 22458 ft 416 kts 178°
2026-04-16 09:42 -38.19061 145.12921 22751 ft 426 kts 177°
2026-04-16 09:42 -38.21977 145.13697 23264 ft 430 kts 177°
2026-04-16 09:42 -38.24916 145.14481 23809 ft 433 kts 178°
2026-04-16 09:42 -38.27873 145.15269 24263 ft 435 kts 178°
2026-04-16 09:43 -38.30845 145.16059 24697 ft 438 kts 178°
2026-04-16 09:43 -38.33846 145.16855 25138 ft 441 kts 178°
2026-04-16 09:43 -38.36859 145.17653 25565 ft 444 kts 178°
2026-04-16 09:43 -38.39894 145.18458 25983 ft 447 kts 178°
2026-04-16 09:44 -38.42953 145.19270 26399 ft 450 kts 178°
2026-04-16 09:44 -38.46027 145.20086 26800 ft 453 kts 179°
2026-04-16 09:44 -38.49129 145.20909 27157 ft 457 kts 179°
2026-04-16 09:44 -38.52248 145.21857 27540 ft 466 kts 173°
2026-04-16 09:45 -38.55358 145.23122 27937 ft 472 kts 171°
2026-04-16 09:45 -38.58469 145.24510 28299 ft 476 kts 170°
2026-04-16 09:45 -38.61597 145.25948 28655 ft 479 kts 170°
2026-04-16 09:45 -38.64747 145.27398 29007 ft 482 kts 170°
2026-04-16 09:46 -38.67921 145.28843 29366 ft 485 kts 171°
2026-04-16 09:46 -38.71082 145.30265 29669 ft 488 kts 171°
2026-04-16 09:46 -38.74294 145.31696 29996 ft 490 kts 171°
2026-04-16 09:46 -38.77519 145.33127 30235 ft 491 kts 171°
2026-04-16 09:47 -38.80742 145.34556 30473 ft 488 kts 172°
2026-04-16 09:47 -38.83945 145.35977 30707 ft 487 kts 172°
2026-04-16 09:47 -38.87150 145.37398 30928 ft 486 kts 172°
2026-04-16 09:48 -38.93595 145.40250 30957 ft 490 kts 172°
2026-04-16 09:48 -39.00009 145.43106 30951 ft 487 kts 172°
2026-04-16 09:49 -39.06379 145.45945 30944 ft 486 kts 172°
2026-04-16 09:49 -39.12761 145.48794 30956 ft 486 kts 172°
2026-04-16 09:50 -39.19161 145.51654 30942 ft 486 kts 172°
2026-04-16 09:50 -39.25559 145.54520 30933 ft 487 kts 172°
2026-04-16 09:51 -39.31966 145.57397 30934 ft 487 kts 172°
2026-04-16 09:51 -39.38372 145.60279 30925 ft 488 kts 172°
2026-04-16 09:52 -39.44785 145.63171 30925 ft 488 kts 172°
2026-04-16 09:52 -39.51148 145.66045 30924 ft 488 kts 172°
2026-04-16 09:53 -39.57558 145.68945 30929 ft 488 kts 172°
2026-04-16 09:53 -39.63968 145.71852 30920 ft 488 kts 172°
2026-04-16 09:54 -39.70291 145.74737 30901 ft 476 kts 172°
2026-04-16 09:54 -39.76542 145.77578 30914 ft 476 kts 172°
2026-04-16 09:55 -39.82818 145.80431 30901 ft 479 kts 172°
2026-04-16 09:55 -39.89111 145.83306 30899 ft 480 kts 172°
2026-04-16 09:56 -39.95366 145.86173 30895 ft 480 kts 172°
2026-04-16 09:56 -40.01671 145.89067 30920 ft 480 kts 172°
2026-04-16 09:57 -40.07965 145.91980 30894 ft 480 kts 172°
2026-04-16 09:57 -40.14266 145.94910 30885 ft 479 kts 172°
2026-04-16 09:58 -40.20541 145.97832 30880 ft 478 kts 172°
2026-04-16 09:58 -40.26819 146.00759 30879 ft 478 kts 172°
2026-04-16 09:59 -40.33060 146.03671 30650 ft 480 kts 172°
2026-04-16 09:59 -40.36201 146.05140 30403 ft 479 kts 172°
2026-04-16 09:59 -40.39330 146.06607 30164 ft 478 kts 172°
2026-04-16 09:59 -40.42463 146.08076 29919 ft 478 kts 172°
2026-04-16 10:00 -40.45607 146.09550 29685 ft 479 kts 172°
2026-04-16 10:00 -40.48744 146.11022 29407 ft 478 kts 172°
2026-04-16 10:00 -40.51847 146.12486 28884 ft 473 kts 172°
2026-04-16 10:01 -40.58083 146.15420 27224 ft 476 kts 171°
2026-04-16 10:01 -40.61173 146.16872 26342 ft 476 kts 171°
2026-04-16 10:01 -40.64275 146.18342 25442 ft 470 kts 171°
2026-04-16 10:01 -40.67332 146.19791 24523 ft 465 kts 170°
2026-04-16 10:02 -40.70349 146.21221 23942 ft 453 kts 171°
2026-04-16 10:02 -40.73283 146.22616 23375 ft 442 kts 171°
2026-04-16 10:02 -40.76148 146.23978 22762 ft 433 kts 171°
2026-04-16 10:02 -40.78978 146.25314 22221 ft 432 kts 171°
2026-04-16 10:03 -40.81804 146.26645 21685 ft 430 kts 171°
2026-04-16 10:03 -40.84638 146.27976 21159 ft 437 kts 171°
2026-04-16 10:03 -40.87523 146.29333 20617 ft 439 kts 170°
2026-04-16 10:03 -40.90357 146.30678 20079 ft 436 kts 170°
2026-04-16 10:04 -40.93200 146.32035 19569 ft 433 kts 170°
2026-04-16 10:04 -40.96022 146.33382 19011 ft 430 kts 170°
2026-04-16 10:04 -40.98826 146.34720 18489 ft 426 kts 170°
2026-04-16 10:04 -41.01605 146.36045 17907 ft 423 kts 169°
2026-04-16 10:05 -41.04367 146.37362 17329 ft 420 kts 169°
2026-04-16 10:05 -41.07100 146.38666 16782 ft 415 kts 169°
2026-04-16 10:05 -41.09808 146.39960 16249 ft 411 kts 169°
2026-04-16 10:05 -41.12486 146.41242 15731 ft 407 kts 169°
2026-04-16 10:06 -41.15101 146.42701 15206 ft 413 kts 159°
2026-04-16 10:06 -41.17452 146.44959 14707 ft 422 kts 143°
2026-04-16 10:06 -41.19369 146.47937 14165 ft 428 kts 128°
2026-04-16 10:06 -41.20981 146.51256 13630 ft 426 kts 126°
2026-04-16 10:07 -41.22550 146.54588 13023 ft 424 kts 126°
2026-04-16 10:07 -41.24101 146.57894 12482 ft 420 kts 126°
2026-04-16 10:07 -41.25696 146.61114 11955 ft 413 kts 132°
2026-04-16 10:07 -41.27618 146.63862 11610 ft 399 kts 142°
2026-04-16 10:08 -41.29623 146.66369 11214 ft 392 kts 143°
2026-04-16 10:08 -41.31631 146.68801 10735 ft 389 kts 144°
2026-04-16 10:08 -41.33618 146.71205 10242 ft 385 kts 144°
2026-04-16 10:08 -41.35585 146.73562 9641 ft 385 kts 145°
2026-04-16 10:09 -41.37601 146.75859 9244 ft 373 kts 146°
2026-04-16 10:09 -41.39636 146.77743 9067 ft 340 kts 162°
2026-04-16 10:09 -41.41776 146.78714 8666 ft 313 kts 182°
2026-04-16 10:09 -41.43876 146.78673 8073 ft 298 kts 193°
2026-04-16 10:10 -41.45945 146.79046 7886 ft 304 kts 167°
2026-04-16 10:10 -41.47811 146.80364 7839 ft 301 kts 157°
2026-04-16 10:10 -41.49555 146.81829 7751 ft 292 kts 156°
2026-04-16 10:10 -41.51251 146.83294 7542 ft 288 kts 155°
2026-04-16 10:11 -41.52925 146.84753 7287 ft 286 kts 155°
2026-04-16 10:11 -41.54586 146.86206 7028 ft 285 kts 155°
2026-04-16 10:11 -41.56237 146.87653 6753 ft 283 kts 155°
2026-04-16 10:11 -41.57880 146.89096 6507 ft 281 kts 155°
2026-04-16 10:12 -41.59503 146.90521 6305 ft 277 kts 155°
2026-04-16 10:12 -41.61055 146.91893 6194 ft 265 kts 155°
2026-04-16 10:12 -41.62569 146.93250 6025 ft 259 kts 155°
2026-04-16 10:12 -41.64038 146.94597 5883 ft 253 kts 154°
2026-04-16 10:13 -41.65491 146.95910 5631 ft 251 kts 154°
2026-04-16 10:13 -41.66959 146.97178 5361 ft 250 kts 154°
2026-04-16 10:13 -41.68421 146.98416 5131 ft 248 kts 154°
2026-04-16 10:13 -41.69882 146.99627 4898 ft 246 kts 154°
2026-04-16 10:14 -41.71337 147.00820 4671 ft 244 kts 154°
2026-04-16 10:14 -41.72789 147.01991 4415 ft 243 kts 154°
2026-04-16 10:14 -41.74240 147.03152 4166 ft 242 kts 154°
2026-04-16 10:14 -41.75661 147.04376 3916 ft 244 kts 143°
2026-04-16 10:15 -41.76621 147.06244 3703 ft 246 kts 110°
2026-04-16 10:15 -41.76833 147.08439 3518 ft 238 kts 84°
2026-04-16 10:15 -41.76512 147.10573 3313 ft 229 kts 75°
2026-04-16 10:15 -41.76120 147.12619 3106 ft 223 kts 74°
2026-04-16 10:16 -41.75737 147.14592 3002 ft 215 kts 74°
2026-04-16 10:16 -41.75332 147.16490 3003 ft 209 kts 69°
2026-04-16 10:16 -41.74798 147.18239 3008 ft 200 kts 63°
2026-04-16 10:16 -41.74233 147.19903 3016 ft 198 kts 63°
2026-04-16 10:17 -41.73650 147.21604 3018 ft 199 kts 62°
2026-04-16 10:17 -41.72991 147.23199 3016 ft 199 kts 56°
2026-04-16 10:17 -41.72254 147.24773 2998 ft 199 kts 54°
2026-04-16 10:17 -41.71522 147.26331 3012 ft 197 kts 54°
2026-04-16 10:18 -41.70814 147.27898 3015 ft 197 kts 55°
2026-04-16 10:18 -41.70104 147.29469 3006 ft 197 kts 55°
2026-04-16 10:18 -41.69632 147.30504 2998 ft 197 kts 54°
2026-04-16 10:18 -41.68506 147.32355 2976 ft 186 kts 15°
2026-04-16 10:19 -41.67713 147.32459 3012 ft 170 kts 339°
2026-04-16 10:19 -41.66752 147.31691 3009 ft 159 kts 319°
2026-04-16 10:19 -41.65845 147.30870 3019 ft 153 kts 321°
2026-04-16 10:19 -41.64970 147.30112 2894 ft 147 kts 321°
2026-04-16 10:20 -41.64120 147.29378 2723 ft 144 kts 321°
2026-04-16 10:20 -41.63282 147.28656 2518 ft 142 kts 321°
2026-04-16 10:20 -41.62458 147.27948 2324 ft 137 kts 321°
2026-04-16 10:20 -41.61676 147.27275 2132 ft 130 kts 321°
2026-04-16 10:21 -41.60914 147.26618 1959 ft 130 kts 322°
2026-04-16 10:21 -41.60154 147.25967 1820 ft 130 kts 322°
2026-04-16 10:21 -41.59374 147.25282 1580 ft 135 kts 323°
2026-04-16 10:21 -41.58589 147.24582 1368 ft 136 kts 326°
2026-04-16 10:22 -41.57780 147.23943 1203 ft 134 kts 326°
2026-04-16 10:22 -41.57012 147.23253 1004 ft 136 kts 324°
2026-04-16 10:22 -41.56207 147.22552 842 ft 135 kts 326°
2026-04-16 10:22 -41.55430 147.21902 696 ft 134 kts 323°
2026-04-16 10:23 -41.54658 147.21232 593 ft 127 kts 324°
2026-04-16 10:23 -41.54088 147.20728 588 ft 64 kts 324°
2026-04-16 10:23 -41.53839 147.20521 592 ft 26 kts 327°
2026-04-16 10:23 -41.53740 147.20386 595 ft 19 kts 264°
2026-04-16 10:24 -41.53818 147.20332 591 ft 15 kts 171°
2026-04-16 10:24 -41.53904 147.20404 588 ft 15 kts 146°
2026-04-16 10:24 -41.53999 147.20480 585 ft 16 kts 149°
2026-04-16 10:24 -41.54096 147.20558 583 ft 17 kts 147°
2026-04-16 10:25 -41.54160 147.20614 582 ft 8 kts 148°
2026-04-16 10:25 -41.54205 147.20650 583 ft 4 kts 150°
2026-04-16 10:25 -41.54215 147.20657 583 ft 1 kts 154°
2026-04-16 10:25 -41.54226 147.20651 582 ft 2 kts 225°
2026-04-16 10:26 -41.54224 147.20627 582 ft 3 kts 291°
2026-04-16 10:26 -41.54217 147.20604 582 ft 3 kts 296°
2026-04-16 10:26 -41.54214 147.20594 582 ft 0 kts 294°